Wind_Speed
24 24 24 24 24 25 25 25 26 27 28 30 30 30 30 31 32 33 35 36 36 36 37 38 39 39 40 40 41 41 42 42 42 42 42 42 43 44 46 47 48 50 51 51
24 23 23 23 23 23 24 25 25 26 27 28 29 28 28 29 31 32 33 34 36 37 38 38 39 39 39 40 41 41 42 42 43 42 42 41 43 44 46 48 48 49 49 50
22 22 22 22 22 22 22 24 25 25 25 27 28 28 27 28 29 31 33 33 35 36 36 37 38 38 39 39 40 41 41 41 42 42 41 42 43 44 46 47 49 49 48 48
21 21 21 20 20 21 21 23 23 24 25 26 28 29 26 28 29 30 31 33 33 34 35 36 36 37 38 38 39 39 39 40 41 42 42 42 43 44 45 46 47 48 47 47
20 20 21 21 20 21 21 22 24 24 25 26 27 29 27 28 29 29 30 31 32 33 34 35 36 36 37 37 37 37 39 40 41 41 41 42 43 43 44 43 44 45 45 45
20 20 21 21 22 22 21 21 23 24 25 26 26 28 28 28 28 28 29 30 30 32 33 34 34 35 35 36 36 37 38 39 40 41 41 41 42 42 41 42 44 44 44 43
20 20 20 21 21 22 22 22 23 24 24 24 25 26 26 26 27 27 28 30 30 31 33 33 33 33 33 32 34 34 35 37 38 40 40 41 41 40 40 41 42 43 43 41
20 20 21 21 22 22 23 23 24 25 26 25 25 25 24 25 25 27 28 29 29 30 31 31 30 30 30 32 33 33 34 35 36 37 38 39 38 39 39 39 39 40 41 40
20 20 20 21 21 22 22 23 24 25 26 26 25 25 25 25 26 26 27 28 28 29 29 29 29 29 30 30 31 32 33 33 34 34 35 36 36 37 38 38 38 39 39 39
19 20 19 20 20 21 21 22 22 23 25 26 25 24 24 24 25 26 26 27 28 28 28 28 28 28 29 30 31 31 31 31 32 32 32 33 36 37 37 37 37 37 38 38
19 20 19 19 19 19 20 21 22 23 24 25 25 23 24 25 25 25 26 27 27 27 27 27 27 27 29 30 30 30 30 29 29 30 31 32 34 35 35 35 36 35 35 36
20 20 20 20 20 20 21 21 21 22 23 24 25 23 24 23 23 24 25 26 26 27 27 27 27 27 28 28 28 28 28 27 28 29 29 29 31 32 33 33 33 33 34 35
19 20 21 20 20 21 21 22 22 23 23 24 24 23 23 23 22 23 24 25 25 26 26 26 26 26 26 26 27 26 26 26 26 27 26 27 27 29 30 32 32 33 33 34
21 21 21 20 21 21 21 22 23 24 24 25 23 22 22 22 22 23 24 24 24 24 24 24 25 26 26 25 26 26 26 25 25 26 25 25 24 25 27 30 31 32 32 34
21 22 21 20 21 22 22 23 24 25 25 25 23 23 21 23 23 23 23 23 23 24 24 24 25 25 25 25 25 25 25 24 24 24 24 23 24 25 26 27 29 29 29 30
22 22 21 21 21 22 23 24 25 25 25 25 24 23 22 23 23 23 23 23 24 24 25 25 25 25 24 24 24 24 23 23 23 23 23 23 24 25 26 26 27 28 28 28
21 22 22 22 22 23 23 22 23 24 24 25 25 24 24 23 23 23 23 24 24 24 25 25 26 25 25 24 24 23 22 22 22 22 22 23 24 25 25 26 28 28 29 29
21 22 23 23 23 23 21 21 22 23 23 24 24 25 26 25 24 24 23 23 24 24 25 25 26 26 24 23 23 22 22 22 22 22 22 23 24 24 25 26 28 28 28 27
21 22 23 23 23 23 21 21 22 22 22 23 24 25 26 26 25 25 25 24 24 24 24 24 25 25 23 22 22 22 22 22 23 22 22 23 24 23 24 25 27 27 26 27
23 23 24 24 24 23 21 21 22 23 22 23 24 24 25 25 25 24 25 25 25 24 24 25 24 24 23 22 22 21 21 22 22 23 23 23 23 24 24 25 26 25 25 25
23 24 24 24 24 23 22 22 23 23 23 23 23 23 24 23 24 24 24 24 25 25 25 25 24 23 23 23 22 21 21 21 22 22 22 23 24 24 24 24 23 22 21 22
23 24 24 24 24 23 23 23 23 23 23 23 23 23 23 23 23 23 24 24 24 25 25 25 23 22 22 23 22 21 21 21 21 21 21 21 22 22 22 22 22 20 19 20
23 23 23 24 24 24 24 24 23 23 22 22 22 23 23 23 23 23 23 24 24 24 24 24 22 21 21 21 21 21 21 21 21 20 20 20 20 20 21 21 20 21 21 21
23 23 23 23 23 23 23 23 23 23 23 23 22 22 22 23 24 24 23 24 23 23 23 23 22 21 20 20 21 21 21 20 20 19 19 19 19 19 19 19 20 20 21 22
22 22 22 22 21 22 23 23 23 23 23 23 23 23 23 23 23 23 23 23 23 23 23 22 21 20 19 19 20 20 21 20 20 19 19 18 17 17 17 17 19 20 21 21
20 20 21 20 20 22 22 22 22 23 23 23 22 22 22 23 23 23 23 23 23 22 22 21 20 19 19 19 19 19 19 19 19 18 17 17 17 16 16 17 17 18 18 19
Wind_Direction
265 264 266 269 270 267 265 266 266 266 264 265 265 262 260 261 262 261 262 262 262 262 264 265 265 266 267 267 265 266 267 267 264 262 261 261 262 261 261 260 259 260 260 261
265 265 266 266 269 266 266 267 268 267 266 266 266 263 262 262 264 263 263 263 262 263 265 268 269 268 268 268 267 266 267 267 264 261 262 263 263 264 262 262 261 261 261 260
265 265 266 267 268 266 266 269 271 269 268 268 269 265 265 265 266 266 265 265 264 265 267 270 271 269 268 270 269 268 268 268 264 262 262 263 265 265 263 262 262 262 262 260
266 265 265 267 267 266 266 270 272 272 271 271 272 271 269 270 268 268 268 267 267 268 269 270 272 270 270 271 271 269 268 267 264 261 261 263 264 266 264 264 263 262 261 261
265 264 264 266 268 267 268 271 273 274 274 273 274 275 272 273 271 270 268 269 270 270 270 272 273 272 271 272 272 270 270 267 265 262 263 264 264 266 265 264 262 261 261 260
268 268 267 267 268 269 270 272 274 276 276 276 276 277 275 275 273 270 268 270 270 271 271 273 274 273 273 273 272 271 273 269 264 263 264 265 265 266 264 264 263 260 259 257
271 273 272 269 269 270 272 274 277 277 277 279 280 278 279 277 274 271 271 271 272 272 273 273 273 274 273 275 275 275 274 270 266 265 265 266 266 265 265 264 263 259 257 256
276 275 274 271 271 273 274 275 278 280 280 280 281 280 279 278 275 275 275 275 274 276 276 275 274 275 274 277 278 277 274 272 269 267 267 267 265 265 265 263 262 258 255 255
280 278 276 274 273 274 276 276 279 282 283 283 282 281 279 278 277 278 278 277 276 277 279 277 276 276 278 279 280 280 276 273 271 270 270 267 265 265 264 262 260 257 255 255
287 282 278 277 275 274 276 279 281 283 286 286 284 284 283 279 278 278 278 277 276 276 278 277 277 277 279 281 283 283 280 274 272 271 271 269 267 265 263 260 259 258 256 254
289 286 281 276 274 274 276 279 281 283 284 287 289 287 286 284 281 279 278 276 275 276 277 276 278 279 280 281 282 284 282 275 273 273 273 270 267 265 261 260 259 259 257 256
288 287 282 278 274 273 274 276 279 282 285 287 289 289 288 287 284 281 278 277 277 277 277 277 280 282 283 282 282 284 283 276 272 273 274 273 269 264 260 260 261 261 260 259
291 289 286 280 277 275 274 274 277 280 282 284 288 291 289 287 284 281 280 280 280 280 279 278 280 281 284 283 281 283 284 277 272 272 273 272 268 264 261 261 263 263 262 261
290 292 291 286 281 278 276 275 277 279 281 284 288 291 288 286 283 282 283 283 283 282 280 279 279 280 283 284 283 284 284 276 271 271 272 269 265 264 265 265 266 265 264 264
288 291 292 288 283 281 278 277 278 280 282 284 287 289 288 284 282 282 283 284 283 282 282 281 280 282 284 284 283 283 282 276 272 272 271 268 265 266 265 266 267 267 268 268
288 290 291 288 284 283 282 281 282 282 282 284 285 286 288 284 283 282 284 284 284 283 283 282 280 282 284 285 283 281 279 276 272 271 271 270 269 268 266 268 269 270 271 272
289 290 291 289 285 283 283 285 284 285 285 285 285 286 285 283 283 284 284 286 287 287 286 284 283 283 284 284 283 282 279 275 271 269 270 269 268 267 268 269 271 271 272 274
289 290 291 291 287 285 289 287 286 287 287 286 287 285 284 283 281 282 284 287 289 290 288 286 284 283 282 282 282 282 281 277 273 272 273 271 266 268 270 272 273 273 272 272
285 288 290 292 289 288 289 291 290 289 290 288 287 286 284 283 282 283 285 287 291 290 289 288 285 283 281 280 281 282 281 278 276 275 275 271 265 267 271 274 275 274 272 271
284 287 289 291 290 290 293 292 291 291 292 291 289 288 286 284 284 284 285 288 290 291 291 290 288 283 280 281 282 281 280 277 276 275 274 273 271 270 270 272 273 273 273 272
285 286 289 291 290 290 293 292 291 292 295 293 291 291 289 286 285 285 286 289 291 290 291 292 290 284 278 278 281 281 281 278 275 275 276 275 273 271 270 270 272 273 274 273
284 287 289 291 290 291 291 289 290 291 293 293 292 291 289 287 287 288 288 290 290 290 291 292 290 285 280 279 281 281 278 277 277 278 278 276 273 273 270 269 269 271 273 275
283 286 287 287 289 290 289 288 288 291 293 293 292 292 290 289 289 289 290 291 291 290 291 291 288 284 280 279 280 281 279 278 278 277 276 274 275 274 270 270 270 271 271 275
281 283 284 286 288 288 288 289 288 290 292 293 292 292 292 291 291 290 290 292 292 290 290 291 287 282 280 280 280 281 280 279 278 276 275 275 275 274 274 272 273 274 274 275
283 284 286 287 289 288 287 288 287 289 290 292 293 293 292 292 292 292 292 292 292 291 290 291 288 283 281 282 284 282 280 277 276 276 276 274 273 273 275 276 278 277 277 278
285 285 287 289 291 290 288 287 287 288 289 291 293 293 293 292 292 292 293 292 291 290 289 289 288 285 282 283 285 282 278 275 274 273 270 270 271 271 275 279 283 283 283 282
Height
5694 5695 5694 5693 5692 5691 5691 5690 5690 5691 5690 5690 5691 5692 5693 5692 5692 5693 5693 5694 5694 5694 5694 5693 5693 5692 5692 5692 5692 5692 5692 5692 5691 5691 5692 5693 5693 5694 5695 5695 5696 5697 5697 5698
5688 5687 5687 5685 5685 5684 5683 5683 5683 5683 5682 5682 5683 5684 5684 5684 5684 5684 5684 5684 5684 5684 5684 5683 5683 5682 5681 5681 5681 5681 5681 5680 5679 5680 5681 5682 5682 5682 5682 5682 5683 5683 5684 5685
5681 5681 5680 5679 5678 5677 5677 5677 5676 5676 5675 5674 5674 5676 5676 5676 5676 5676 5675 5675 5675 5675 5674 5674 5673 5671 5671 5670 5670 5670 5670 5669 5668 5669 5670 5671 5671 5670 5670 5670 5671 5671 5671 5672
5674 5674 5673 5672 5672 5671 5671 5670 5669 5668 5668 5667 5667 5667 5669 5668 5667 5667 5666 5666 5665 5665 5664 5664 5662 5661 5661 5660 5659 5659 5658 5657 5657 5657 5658 5659 5659 5659 5659 5658 5658 5658 5658 5660
5668 5667 5667 5666 5666 5665 5664 5663 5662 5661 5660 5661 5660 5659 5662 5660 5660 5659 5658 5657 5656 5655 5654 5653 5652 5651 5650 5650 5649 5649 5647 5646 5646 5646 5646 5647 5647 5647 5646 5646 5646 5646 5646 5648
5662 5661 5660 5660 5659 5659 5658 5657 5656 5654 5654 5654 5654 5652 5653 5652 5651 5650 5649 5648 5647 5646 5645 5644 5642 5641 5640 5640 5639 5638 5637 5635 5634 5634 5634 5634 5635 5634 5634 5634 5634 5634 5635 5637
5655 5655 5654 5653 5653 5652 5652 5651 5650 5648 5647 5648 5646 5644 5646 5644 5642 5642 5641 5640 5638 5637 5636 5634 5633 5631 5631 5630 5630 5628 5626 5624 5623 5623 5623 5622 5622 5623 5623 5622 5622 5623 5625 5627
5649 5649 5648 5647 5646 5646 5645 5644 5644 5642 5641 5641 5639 5637 5639 5636 5634 5633 5632 5631 5630 5628 5627 5626 5624 5623 5622 5621 5620 5618 5616 5614 5613 5612 5612 5611 5611 5611 5611 5611 5611 5612 5614 5616
5643 5643 5641 5640 5639 5639 5638 5637 5637 5635 5633 5633 5632 5631 5631 5629 5627 5625 5624 5623 5621 5620 5619 5617 5616 5615 5613 5612 5610 5608 5606 5604 5603 5602 5601 5601 5600 5600 5600 5601 5601 5602 5603 5606
5637 5636 5635 5634 5633 5633 5632 5631 5630 5628 5626 5625 5625 5624 5624 5622 5620 5618 5616 5615 5613 5612 5611 5609 5608 5606 5605 5603 5601 5599 5596 5594 5593 5592 5592 5591 5590 5589 5590 5590 5591 5592 5594 5596
5632 5631 5630 5628 5627 5627 5626 5625 5623 5622 5621 5619 5617 5620 5616 5614 5612 5611 5609 5606 5605 5604 5602 5601 5599 5598 5596 5594 5592 5590 5587 5585 5585 5584 5583 5582 5580 5580 5580 5581 5582 5583 5585 5586
5626 5625 5624 5623 5622 5621 5620 5619 5618 5617 5615 5612 5610 5613 5608 5606 5604 5602 5601 5599 5597 5596 5594 5593 5591 5590 5587 5585 5584 5581 5579 5577 5576 5575 5574 5573 5571 5571 5572 5573 5574 5574 5575 5576
5621 5619 5618 5617 5618 5616 5614 5613 5611 5609 5608 5606 5604 5607 5601 5599 5597 5595 5593 5591 5589 5588 5587 5585 5583 5582 5580 5577 5575 5573 5571 5570 5568 5567 5566 5565 5564 5564 5564 5565 5566 5566 5566 5567
5615 5613 5613 5612 5609 5608 5607 5606 5604 5602 5601 5599 5598 5598 5595 5592 5590 5588 5586 5584 5582 5580 5579 5577 5576 5574 5572 5570 5568 5566 5564 5562 5561 5560 5559 5558 5557 5557 5558 5558 5558 5557 5557 5558
5608 5607 5606 5604 5603 5601 5600 5599 5597 5595 5594 5593 5592 5590 5588 5585 5583 5582 5580 5578 5576 5574 5572 5570 5569 5567 5565 5563 5561 5558 5556 5554 5553 5553 5552 5551 5551 5551 5551 5551 5551 5550 5550 5550
5602 5601 5600 5598 5596 5594 5593 5593 5591 5589 5587 5585 5584 5584 5581 5578 5577 5575 5573 5571 5569 5567 5565 5563 5561 5559 5557 5555 5553 5551 5549 5547 5546 5546 5545 5545 5545 5544 5544 5544 5544 5543 5543 5543
5596 5594 5593 5591 5589 5587 5587 5586 5584 5582 5581 5579 5577 5577 5574 5572 5570 5568 5567 5565 5562 5560 5558 5556 5554 5551 5550 5548 5545 5543 5542 5541 5539 5539 5538 5538 5538 5538 5538 5537 5537 5536 5536 5535
5590 5588 5586 5584 5583 5581 5584 5579 5577 5575 5574 5572 5570 5569 5567 5565 5563 5561 5560 5558 5556 5553 5551 5548 5546 5544 5543 5541 5539 5537 5535 5534 5533 5532 5532 5532 5532 5532 5531 5531 5530 5529 5529 5528
5584 5582 5580 5577 5575 5574 5575 5573 5570 5568 5567 5565 5563 5561 5560 5558 5557 5555 5553 5550 5548 5546 5544 5541 5539 5537 5535 5534 5532 5530 5529 5527 5526 5526 5526 5525 5526 5525 5525 5525 5523 5522 5522 5521
5577 5575 5574 5571 5568 5568 5569 5566 5563 5562 5561 5559 5556 5554 5552 5551 5550 5549 5546 5543 5541 5539 5537 5534 5532 5530 5528 5527 5526 5524 5523 5521 5520 5520 5519 5519 5519 5518 5518 5518 5517 5516 5515 5515
5570 5568 5567 5565 5562 5561 5562 5559 5557 5557 5556 5552 5549 5547 5545 5544 5543 5541 5539 5536 5534 5532 5530 5527 5524 5523 5521 5520 5519 5518 5516 5515 5514 5514 5513 5512 5512 5512 5511 5511 5510 5509 5509 5508
5563 5561 5560 5558 5556 5558 5555 5552 5551 5549 5547 5545 5542 5541 5539 5537 5535 5533 5531 5529 5527 5525 5522 5520 5518 5516 5515 5514 5513 5511 5510 5509 5508 5507 5506 5506 5505 5505 5504 5504 5503 5503 5502 5502
5556 5555 5553 5552 5553 5550 5547 5545 5544 5542 5540 5538 5536 5534 5532 5530 5528 5526 5524 5522 5520 5517 5515 5513 5511 5509 5508 5507 5506 5505 5504 5503 5502 5501 5500 5499 5499 5498 5498 5497 5497 5496 5496 5495
5549 5548 5546 5545 5544 5542 5540 5538 5537 5535 5533 5531 5529 5527 5525 5523 5521 5519 5517 5515 5513 5510 5508 5506 5504 5503 5502 5501 5499 5499 5498 5497 5496 5495 5494 5494 5493 5492 5491 5491 5490 5490 5489 5489
5542 5540 5539 5538 5537 5535 5533 5531 5530 5528 5527 5525 5523 5520 5518 5516 5514 5512 5510 5508 5506 5504 5502 5500 5498 5497 5496 5495 5493 5492 5491 5491 5490 5489 5489 5488 5487 5487 5486 5485 5484 5484 5483 5482
5535 5534 5533 5532 5530 5528 5527 5525 5523 5522 5520 5518 5516 5514 5512 5510 5508 5505 5503 5501 5499 5497 5495 5494 5492 5491 5490 5489 5487 5486 5485 5485 5484 5484 5483 5483 5482 5482 5481 5480 5479 5477 5476 5475